| time (UTC) | temp F | wind direction | speed MPH | gust MPH | rain 1hr in | rain 24hr in | rain mn in | humidity % | barometer mb |
| 20260504212945 | 73 | 236 | 3.0 | 13.0 | 0.00 | 0.00 | 0.00 | 35 | 1005.2 |
| 20260504211344 | 73 | 232 | 3.0 | 16.0 | 0.00 | 0.00 | 0.00 | 36 | 1005.2 |
| 20260504204329 | 73 | 40 | 3.0 | 13.0 | 0.00 | 0.00 | 0.00 | 33 | 1005.2 |
| 20260504195915 | 71 | 147 | 2.0 | 14.0 | 0.00 | 0.00 | 0.00 | 34 | 1005.2 |
| 20260504192913 | 69 | 243 | 4.0 | 14.0 | 0.00 | 0.00 | 0.00 | 36 | 1005.5 |
| 20260504191313 | 70 | 272 | 3.0 | 9.0 | 0.00 | 0.00 | 0.00 | 34 | 1005.6 |
| 20260504182852 | 72 | 248 | 5.0 | 21.0 | 0.00 | 0.00 | 0.00 | 35 | 1005.7 |
| 20260504182619 | 71 | 252 | 5.0 | 20.0 | 0.00 | 0.00 | 0.00 | 32 | 1005.9 |
| 20260504175634 | 71 | 239 | 4.0 | 19.0 | 0.00 | 0.00 | 0.00 | 35 | 1006.1 |
| 20260504045529 | 32 | 283 | 0.0 | 0.0 | 0.00 | 0.03 | 0.00 | 88 | 1009.5 |
| 20260504042504 | 31 | 283 | 0.0 | 0.0 | 0.00 | 0.03 | 0.00 | 86 | 1009.4 |
| 20260504035509 | 32 | 283 | 0.0 | 0.0 | 0.00 | 0.03 | 0.03 | 85 | 1009.2 |
| 20260504032455 | 33 | 283 | 0.0 | 0.0 | 0.00 | 0.03 | 0.03 | 83 | 1009.1 |
| 20260504025456 | 34 | 283 | 0.0 | 0.0 | 0.00 | 0.03 | 0.03 | 81 | 1009.1 |
| 20260504022450 | 35 | 283 | 0.0 | 0.0 | 0.00 | 0.03 | 0.03 | 78 | 1009.0 |
| 20260504015454 | 37 | 283 | 0.0 | 0.0 | 0.00 | 0.03 | 0.03 | 75 | 1008.7 |
| 20260504012435 | 40 | 283 | 0.0 | 0.0 | 0.00 | 0.03 | 0.03 | 72 | 1008.6 |
| 20260504005433 | 42 | 283 | 0.0 | 0.0 | 0.00 | 0.03 | 0.03 | 67 | 1008.2 |
| 20260504002426 | 45 | 283 | 0.0 | 1.0 | 0.00 | 0.03 | 0.03 | 62 | 1007.8 |
| 20260503235426 | 49 | 283 | 1.0 | 8.0 | 0.00 | 0.03 | 0.03 | 50 | 1007.5 |
| 20260503232423 | 50 | 293 | 2.0 | 12.0 | 0.00 | 0.05 | 0.03 | 46 | 1007.2 |
| 20260503225418 | 51 | 261 | 4.0 | 14.0 | 0.00 | 0.05 | 0.03 | 45 | 1006.9 |
| 20260503222420 | 51 | 355 | 6.0 | 17.0 | 0.00 | 0.05 | 0.03 | 43 | 1006.5 |
| 20260503220751 | 52 | 11 | 4.0 | 15.0 | 0.00 | 0.05 | 0.03 | 43 | 1006.3 |